sat.trackr.live / text

‹ back to catalog

STARLINK-34603

NORAD 65220 · 2025-176Y

PAYLOAD ACTIVE UNKNOWN

§ Identity

Operator
Country
US
Launch date
2025-08-14
Launch site
AFETR
Launch vehicle
Mass (kg)
RCS (m²)

Purposes: comms

External: N2YO · Heavens-Above · Gunter

§ Orbital elements

Epoch: 2026-09-20T20:41:17.310624Z

Period
93.85 min
Inclination
53.1575°
Eccentricity
0.0000918
Mean motion
15.34402639 rev/d
Perigee alt
462.1 km
Apogee alt
463.3 km
Semi-major
6,840.8 km
B*
3.3170e-4
RAAN
321.8139°
Arg perigee
80.9629°
Mean anomaly
279.1478°
Rev number
6,306

§ Raw data

STARLINK-346031 65220U 25176Y   26263.86200591  .00010848  00000+0  33170-3 0  99932 65220  53.1575 321.8139 0000918  80.9629 279.1478 15.34402639 63062

JSON: /api/v1/satellites/65220 · /tle

For live sub-satellite position, see the globe view (requires WebGL).

§ Visibility from observer

Set your observer location to see the next 7 days of passes ≥ 10°. The values pass through the URL so the page stays shareable.

No JS? Fill the form by hand. The geolocation button needs JavaScript.